KUIPER-00618

导读

KUIPER-00618(NORAD编号69294)是亚马逊柯伊伯(Kuiper)低轨互联网星座的组网卫星,该星座由亚马逊主导建设,目标为全球偏远地区、乡村及发展中国家提供高速低延迟的网络接入服务,覆盖消费端、政企及特殊领域通信需求。该卫星属于柯伊伯项目2025年下半年后发射的批次卫星,入轨后先进入450公里过渡轨道,经轨道抬升后运行于约630公里的工作轨道,轨道倾角约51.9度,轨道周期约97分钟,截至2026年6月处于稳定在轨运行状态,将与其他组网卫星协同推进全球数字普惠服务落地。

基本信息
目录编号:
69294
目录名称:
KUIPER-00618
国际标识:
2026-118AD
轨道中心:
EARTH
卫星名称:
KUIPER-00618
卫星全名:
KUIPER-00618
卫星状态:
在轨 (已飞行105 天)
发射日期:
2026-05-29 UTC
国别 :
美国 (US)
星等 :
--
轨道信息
数据来源 国际轨道数据 AOE轨道数据
星历时间 2026-09-10T20:34:36+0800
14小时前
查看轨道信息
2026-09-10T08:00:00+0800
1天前
查看轨道信息
半长轴 7007.7km 7007.715km
偏心率 0.0002202 0.0001932
轨道倾角 51.904° 51.904°
近地点辐角 154.407° 157.824°
升交点赤经 13.312° 15.631°
平近点角 205.701° 288.715°
近地点 628.019km 628.224km
远地点 631.107km 630.932km
周期 97.302分钟 97.303分钟
每日圈数 14.799245 14.799197
详细信息
使用方式:
暂无
2D轨道图
3D轨道图
轨道高度分析图
轨道倾角分析图
轨道综合分析图
查看轨道综合分析图
交会数据列表
事件ID 空间交会对象 最接近时刻(TCA) 交会距离 交会风险概率(CRP) 交会风险指数(CRI) 操作
CDM_260911-141603-915006-929427
GAOFEN 1 (39150)
2026-09-11T
14:16:38+0000
1.760 km
极远距离
2.661551E-6 低风险 0.44
与全量物体交会距离演化趋势
与全量物体交会风险概率演化趋势